Regional Weather Roundup
Issued by NWS Charleston, WV

Home | Current Version | Previous Version | Text Only | Print | Product List | Glossary Off
Versions: 1 2 3 4 5 6 7 8 9 10 11 12 13 14 15 16 17 18 19 20 21 22 23 24 25 26 27 28 29 30 31 32 33 34 35 36 37 38 39 40 41 42 43 44 45 46 47 48 49 50

000
ASUS41 KRLX 010210
RWRRLX
West Virginia Regional Weather Roundup
National Weather Service Charleston WV
1000 PM EDT SUN APR 30 2017

Note: "fair" indicates few or no clouds below 12,000 feet with no
significant weather and/or obstructions to visibility.

WVZ003-010300-
Northern Panhandle of West Virginia

CITY           SKY/WX    TMP DP  RH WIND       PRES   REMARKS
WHEELING       CLOUDY    78  55  44 S12       29.89S
$$

WVZ009-010300-
Northwest West Virginia

CITY           SKY/WX    TMP DP  RH WIND       PRES   REMARKS
PARKERSBURG    CLOUDY    78  60  53 S3        29.90S
$$

WVZ006-010300-
Western West Virginia

CITY           SKY/WX    TMP DP  RH WIND       PRES   REMARKS
HUNTINGTON     CLOUDY    81  52  36 S10       29.88S
$$

WVZ015-010300-
West Central West Virginia

CITY           SKY/WX    TMP DP  RH WIND       PRES   REMARKS
CHARLESTON     CLOUDY    80  52  37 S9        29.92R
$$

WVZ022-031-010300-
North Central West Virginia

CITY           SKY/WX    TMP DP  RH WIND       PRES   REMARKS
CLARKSBURG     CLOUDY    76  57  51 S9        29.93R
MORGANTOWN     PTCLDY    75  59  57 S3        29.93R
$$

WVZ025-035-042-045-010300-
Southern West Virginia

CITY           SKY/WX    TMP DP  RH WIND       PRES   REMARKS
BECKLEY        CLOUDY    71  52  50 S13       30.05F
LOGAN            N/A     77  54  44 S8G14     29.97R
BLUEFIELD      CLOUDY    69  54  58 S8        30.09S
LEWISBURG      CLEAR     70  55  59 S6        30.08R
$$

WVZ047-010300-
Northern Mountains of West Virginia

CITY           SKY/WX    TMP DP  RH WIND       PRES   REMARKS
ELKINS         PTCLDY    75  52  44 S9        30.02R
$$

WVZ052-010300-
Eastern Panhandle of West Virginia

CITY           SKY/WX    TMP DP  RH WIND       PRES   REMARKS
MARTINSBURG    PTCLDY    71  64  78 CALM      29.98R
PETERSBURG     PTCLDY    78  60  53 SE5       29.98R
$$



USA.gov is the U.S. government's official web portal to all federal, state and local government web resources and services.